This demonstration page uses our WeatherBlox Daily Observations layout. Learn more.

Left ArrowRight Arrow

39.01783, -85.05884

Hourly Observations for April 22, 2021

Temp ( °F °C ) Dew Point ( °F °C ) Humidity (%) Winds ( mph kmh ) Pressure ( in mb ) Visibility ( mi km ) Precip ( " mm )
12:52 am 00:52 Mostly Clear 33 0.6 30 -1.1 89 89 SSW 3 6 30.13 1020 8 12.87472 0 0
1:52 am 01:52 Mostly Clear 33 0.6 30 -1.1 89 89 SSW 3 6 30.13 1020 9 14.48406 0 0
2:52 am 02:52 Mostly Cloudy 32 0 30 -1.1 92 92 SSW 6 9 30.11 1020 9 14.48406 0 0
3:52 am 03:52 Cloudy 33 0.6 30 -1.1 89 89 SW 3 6 30.11 1020 7 11.26538 0 0
4:52 am 04:52 Cloudy 33 0.6 30 -1.1 89 89 W 7 11 30.12 1020 7 11.26538 0 0
5:52 am 05:52 Cloudy 33 0.6 30 -1.1 89 89 W 5 7 30.12 1020 7 11.26538 0 0
6:04 am 06:04 Cloudy with Light Snow 33 0.6 31 -0.6 92 92 WNW 3 6 30.15 1021 5 8.0467 0.001 0.001
6:52 am 06:52 Cloudy with Light Snow 34 1.1 31 -0.6 89 89 SSW 5 7 30.13 1020 7 11.26538 0.001 0.001
7:52 am 07:52 Cloudy 35 1.7 32 0 89 89 WSW 3 6 30.14 1021 9 14.48406 0.001 0.001
8:52 am 08:52 Cloudy 38 3.3 33 0.6 83 83 WSW 3 6 30.15 1021 10 16.0934 0 0
9:52 am 09:52 Mostly Cloudy 42 5.6 32 0 68 68 WNW 6 9 30.15 1021 10 16.0934 0 0
10:52 am 10:52 Mostly Cloudy 46 7.8 32 0 58 58 W 13 20 30.16 1022 10 16.0934 0 0
11:52 am 11:52 Cloudy 46 7.8 23 -5 40 40 WNW 13 20 30.18 1022 10 16.0934 0 0
12:52 pm 12:52 Cloudy 48 8.9 25 -3.9 41 41 WNW 17 28 30.17 1022 10 16.0934 0 0
1:52 pm 13:52 Mostly Cloudy 48 8.9 22 -5.6 36 36 W 18 30 30.16 1021 10 16.0934 0 0
2:52 pm 14:52 Mostly Cloudy 51 10.6 23 -5 33 33 W 14 22 30.15 1021 10 16.0934 0 0
3:52 pm 15:52 Mostly Cloudy 53 11.7 25 -3.9 34 34 WNW 15 24 30.15 1021 10 16.0934 0 0
4:52 pm 16:52 Partly Cloudy 51 10.6 22 -5.6 32 32 WNW 16 26 30.14 1021 10 16.0934 0 0
5:52 pm 17:52 Partly Cloudy 52 11.1 22 -5.6 31 31 WNW 13 20 30.12 1020 10 16.0934 0 0
6:52 pm 18:52 Mostly Sunny 52 11.1 22 -5.6 31 31 WNW 9 15 30.13 1020 10 16.0934 0 0
7:52 pm 19:52 Sunny 50 10 22 -5.6 33 33 WNW 8 13 30.13 1020 10 16.0934 0 0
8:52 pm 20:52 Clear 47 8.3 23 -5 39 39 NW 5 7 30.14 1021 10 16.0934 0 0
9:52 pm 21:52 Clear 44 6.7 24 -4.4 45 45 WNW 3 6 30.16 1021 10 16.0934 0 0
10:52 pm 22:52 Clear 38 3.3 24 -4.4 57 57 SW 3 6 30.16 1021 10 16.0934 0 0
11:52 pm 23:52 Clear 37 2.8 27 -2.8 67 67 S 3 6 30.16 1021 10 16.0934 0 0

Powered by AerisWeather